ROMMA est une association bénévole à but non lucratif. Votre soutien est indispensable : ADHERER à ROMMA ou FAIRE un DON

Lans-en-Vercors - (38, Isère)

Vercors (990 m)   Longitude: 5° 33' 59'' E   Latitude: 45° 6' 3'' N Station partenaire n°80
 

Détail journalier du     <<     >>

Température Precipitation Humidité Pression Vent Dir Rafale Dir. rafale Ensol.
Heure (°C) (mm) (%) (hPa) (km/h) (km/h) (min)
01:00 -0.809410163OSO42NO0
02:00 -0.909410162OSO8OSO0
03:00 -0.7095101603OSO0
04:00 -0.609410156N16NNE0
05:00 -0.509410156N15N0
06:00 -0.409410158NNE18NNE0
07:00 -0.6094101513NNE24NNE0
08:00 -0.6094101515NNE27NE0
09:00 -0.2094101516NNE26NNO0
10:00 0.30.292101516NNE29NNE0
11:00 2.6087101615NNE27NNE20
12:00 2.8084101615N32NNE40
13:00 4.9081101518N32ENE50
14:00 5.2077101618NNE39NE20
15:00 6.3072101619N35NNE40
16:00 4.5077101619NNE35NNE50
17:00 4.0079101521NNE37NE10
18:00 3.0080101621NNE34ENE10
19:00 2.2081101620NNE32NNE10
20:00 1.9083101614N27NNE0
21:00 1.4086101710NNE24NNE0
22:00 1.008710179NNE24NNE0
23:00 0.908710178N18N0
minuit 0.7087101711N23NNE0

Graphique du 30-03-2020

 

Serveur OMMA